Location: Alfords
(31.4624°N, 83.9238°W)
Time: 01:33:19
(UTC+00:00)

Tiangong - Pass Details

Date: 30 September 2021
Orbit: 382 x 385 km, 41.5° (Epoch: 17 October)

Event Time Altitude Azimuth Distance (km) Brightness Sun altitude
Exits shadow 09:22:44 12° 34° (NE) 1,307 4.3 -27.5°
Drops below altitude 10° 09:23:01 10° 37° (NE) 1,397 4.5 -27.5°
Sets 09:25:29 0° 53° (NE) 2,298 6.1 -27.0°
